PTMEM SBBH-SBKP

Flight info

Callsign PTMEM
Flight time N/A
Altitude 10000
Route ANDEM Z92 ENTIT
Aircraft C208/L-SDFGR/C

Departure

Time 2026-04-30 02:56
Airport Pampulha - Carlos Drummond de Andrade Airport (SBBH)

Arrival

Time N/A
Airport Viracopos International Airport (SBKP)
Time Latitude Longitude Altitude Speed Heading
2026-04-30 02:05 -19.84877 -43.94952 2610 ft 0 kts 21°
2026-04-30 02:39 -19.84878 -43.94952 2610 ft 1 kts 21°
2026-04-30 02:39 -19.84892 -43.94958 2611 ft 2 kts 20°
2026-04-30 02:40 -19.84906 -43.94964 2611 ft 2 kts 20°
2026-04-30 02:40 -19.84915 -43.94967 2611 ft 2 kts
2026-04-30 02:40 -19.84929 -43.94963 2611 ft 2 kts 319°
2026-04-30 02:40 -19.84935 -43.94953 2611 ft 1 kts 291°
2026-04-30 02:45 -19.84935 -43.94954 2611 ft 0 kts 290°
2026-04-30 02:45 -19.84932 -43.94961 2611 ft 2 kts 290°
2026-04-30 02:45 -19.84922 -43.94989 2611 ft 5 kts 291°
2026-04-30 02:45 -19.84903 -43.95041 2610 ft 9 kts 291°
2026-04-30 02:46 -19.84901 -43.95112 2609 ft 11 kts 225°
2026-04-30 02:46 -19.84922 -43.95198 2608 ft 13 kts 283°
2026-04-30 02:46 -19.84895 -43.95293 2607 ft 4 kts 278°
2026-04-30 02:46 -19.84895 -43.95295 2607 ft 0 kts 276°
2026-04-30 02:49 -19.84895 -43.95296 2607 ft 0 kts 276°
2026-04-30 02:49 -19.84895 -43.95314 2607 ft 4 kts 261°
2026-04-30 02:49 -19.84912 -43.95357 2607 ft 7 kts 244°
2026-04-30 02:49 -19.84935 -43.95417 2607 ft 11 kts 274°
2026-04-30 02:50 -19.84899 -43.95520 2607 ft 18 kts 290°
2026-04-30 02:50 -19.84847 -43.95662 2610 ft 22 kts 288°
2026-04-30 02:50 -19.84795 -43.95813 2613 ft 20 kts 291°
2026-04-30 02:50 -19.84750 -43.95942 2615 ft 16 kts 284°
2026-04-30 02:51 -19.84724 -43.96040 2618 ft 12 kts 327°
2026-04-30 02:51 -19.84723 -43.96007 2617 ft 8 kts 146°
2026-04-30 02:51 -19.84739 -43.95967 2616 ft 0 kts 110°
2026-04-30 02:55 -19.84770 -43.95881 2614 ft 38 kts 113°
2026-04-30 02:55 -19.84922 -43.95446 2607 ft 85 kts 110°
2026-04-30 02:55 -19.85153 -43.94808 2780 ft 92 kts 101°
2026-04-30 02:56 -19.85385 -43.94171 2946 ft 95 kts 113°
2026-04-30 02:56 -19.85627 -43.93499 3089 ft 97 kts 102°
2026-04-30 02:56 -19.85850 -43.92812 3237 ft 98 kts 112°
2026-04-30 02:56 -19.86089 -43.92193 3458 ft 90 kts 110°
2026-04-30 02:57 -19.86335 -43.91557 3544 ft 94 kts 102°
2026-04-30 02:57 -19.86534 -43.90917 3718 ft 90 kts 103°
2026-04-30 02:57 -19.86724 -43.90287 3830 ft 92 kts 98°
2026-04-30 02:57 -19.86927 -43.89633 3964 ft 90 kts 109°
2026-04-30 02:58 -19.87159 -43.89025 4074 ft 93 kts 104°
2026-04-30 02:58 -19.87403 -43.88335 4120 ft 106 kts 102°
2026-04-30 02:58 -19.87675 -43.87607 4333 ft 107 kts 107°
2026-04-30 02:58 -19.87958 -43.86876 4554 ft 106 kts 107°
2026-04-30 02:59 -19.88232 -43.86153 4758 ft 104 kts 104°
2026-04-30 02:59 -19.88488 -43.85449 4963 ft 101 kts 104°
2026-04-30 02:59 -19.88739 -43.84753 5159 ft 99 kts 103°
2026-04-30 02:59 -19.88983 -43.84077 5368 ft 96 kts 100°
2026-04-30 03:00 -19.89122 -43.83418 5568 ft 92 kts 104°
2026-04-30 03:00 -19.89350 -43.82787 5729 ft 92 kts 105°
2026-04-30 03:00 -19.89603 -43.82161 5896 ft 91 kts 102°
2026-04-30 03:00 -19.89809 -43.81507 6039 ft 92 kts 103°
2026-04-30 03:01 -19.90043 -43.80886 6220 ft 92 kts 109°
2026-04-30 03:01 -19.90303 -43.80251 6362 ft 95 kts 110°
2026-04-30 03:01 -19.90558 -43.79621 6555 ft 90 kts 103°
2026-04-30 03:01 -19.90786 -43.78968 6643 ft 100 kts 101°
2026-04-30 03:02 -19.90949 -43.78301 6843 ft 98 kts 104°
2026-04-30 03:02 -19.91259 -43.77618 7027 ft 98 kts 109°
2026-04-30 03:02 -19.91590 -43.76869 7033 ft 117 kts 107°
2026-04-30 03:02 -19.91903 -43.76002 7017 ft 135 kts 104°
2026-04-30 03:03 -19.92231 -43.75022 7002 ft 148 kts 105°
2026-04-30 03:03 -19.93273 -43.73045 6981 ft 167 kts 148°
2026-04-30 03:03 -19.94433 -43.72874 7042 ft 172 kts 189°
2026-04-30 03:04 -19.95552 -43.73249 7255 ft 164 kts 196°
2026-04-30 03:04 -19.96589 -43.73664 7446 ft 157 kts 198°
2026-04-30 03:04 -19.97599 -43.74076 7646 ft 152 kts 197°
2026-04-30 03:04 -19.98577 -43.74472 7852 ft 147 kts 197°
2026-04-30 03:05 -19.99532 -43.74854 7989 ft 150 kts 196°
2026-04-30 03:05 -20.00560 -43.75258 8016 ft 160 kts 197°
2026-04-30 03:05 -20.01633 -43.75686 8013 ft 169 kts 198°
2026-04-30 03:05 -20.02755 -43.76140 8013 ft 174 kts 198°
2026-04-30 03:06 -20.03905 -43.76600 8009 ft 177 kts 198°
2026-04-30 03:06 -20.05067 -43.77068 8006 ft 179 kts 198°
2026-04-30 03:06 -20.06241 -43.77539 8005 ft 180 kts 198°
2026-04-30 03:06 -20.07414 -43.78009 8001 ft 180 kts 198°
2026-04-30 03:07 -20.08591 -43.78480 8001 ft 180 kts 198°
2026-04-30 03:07 -20.09773 -43.78956 8005 ft 180 kts 198°
2026-04-30 03:07 -20.10949 -43.79425 8006 ft 180 kts 198°
2026-04-30 03:07 -20.12120 -43.79915 7998 ft 181 kts 206°
2026-04-30 03:08 -20.12988 -43.80873 8005 ft 182 kts 237°
2026-04-30 03:08 -20.13648 -43.82040 7998 ft 183 kts 242°
2026-04-30 03:08 -20.14269 -43.83230 7997 ft 183 kts 241°
2026-04-30 03:08 -20.14887 -43.84404 7996 ft 183 kts 241°
2026-04-30 03:09 -20.15514 -43.85587 7997 ft 183 kts 241°
2026-04-30 03:09 -20.15907 -43.86324 7995 ft 183 kts 240°